Regional Weather Roundup
Issued by NWS

Home | Current Version | Previous Version | Text Only | Print | Product List | Glossary On
Versions: 1 2 3 4 5 6 7 8 9 10 11 12 13 14 15 16 17 18 19 20 21 22 23 24 25 26 27 28 29 30 31 32 33 34 35 36 37 38 39 40 41 42 43 44 45 46 47 48
000
ASUS45 KREV 060010
RWRNV
NEVADA REGIONAL WEATHER ROUNDUP
NATIONAL WEATHER SERVICE RENO NV
500 PM PDT TUE MAY 05 2015

NOTE: "FAIR" INDICATES FEW OR NO CLOUDS BELOW 12,000 FEET WITH NO
SIGNIFICANT WEATHER AND/OR OBSTRUCTIONS TO VISIBILITY.

NVZ001-003-004-060100-
WESTERN NEVADA

CITY           SKY/WX    TMP DP  RH WIND       PRES   REMARKS
RENO           PTSUNNY   74  27  17 W17G24    29.82F
6HR MIN TEMP:  66; 6HR MAX TEMP:  78;

CARSON CITY    FAIR      72  23  16 W17G25    29.85F
MINDEN         FAIR      70  25  18 W20G28    29.86
FALLON         MOSUNNY   76  21  12 NW3       29.76F
6HR MIN TEMP:  70; 6HR MAX TEMP:  79;

LOVELOCK       SUNNY     77  20  12 W16G28    29.77S
6HR MIN TEMP:  69; 6HR MAX TEMP:  79;

HAWTHORNE      MOSUNNY   77  23  13 W8        29.78S
$$

NVZ002-CAZ072-073-060100-
NORTHERN AND CENTRAL SIERRA

CITY           SKY/WX    TMP DP  RH WIND       PRES   REMARKS
S. LAKE TAHOE  SUNNY     63  25  23 MISG      29.94F
6HR MIN TEMP:  60; 6HR MAX TEMP:  67;

TRUCKEE        MOSUNNY   63  27  25 W14G20    29.95S
                   6HR MAX TEMP:  64;

SQUAW VLY 8000 NOT AVBL
SUSANVILLE     SUNNY     72  27  18 W15G23    29.84
BLUE CANYON    MOSUNNY   58  29  33 SW8       29.98F
MAMMOTH LAKES  CLOUDY    59  27  29 W29G35    30.00R
BRIDGEPORT     FAIR      63  30  28 SW14G24   29.92S
$$

NVZ030-031-036-060100-
NORTHERN NEVADA

CITY           SKY/WX    TMP DP  RH WIND       PRES   REMARKS
ELKO           PTSUNNY   71  28  20 NW13G23   29.77F
6HR MIN TEMP:  66; 6HR MAX TEMP:  75; 6HR PCP: TRACE;

WINNEMUCCA     NOT AVBL
WENDOVER       CLOUDY    64  39  39 N16G23    29.79R
$$

NVZ035-037-060100-
CENTRAL NEVADA

CITY           SKY/WX    TMP DP  RH WIND       PRES   REMARKS
ELY            CLOUDY    56  39  53 N18       29.90R
6HR MIN TEMP:  55; 6HR MAX TEMP:  65; 6HR PCP: TRACE;

EUREKA           N/A     67  32  27 N8        29.85F
6HR MIN TEMP:  62; 6HR MAX TEMP:  72;

$$

NVZ013-014-060100-
SOUTH CENTRAL NEVADA

CITY           SKY/WX    TMP DP  RH WIND       PRES   REMARKS
TONOPAH        NOT AVBL
$$

NVZ017-020-022-060100-
SOUTHERN NEVADA

CITY           SKY/WX    TMP DP  RH WIND       PRES   REMARKS
LAS VEGAS      MOSUNNY   86  30  13 SW14G28   29.65F
6HR MIN TEMP:  75; 6HR MAX TEMP:  87;

N. LAS VEGAS   SUNNY     86  28  12 S13       29.67F
6HR MIN TEMP:  72; 6HR MAX TEMP:  86;

NELLIS AFB     NOT AVBL
HENDERSON      SUNNY     85  34  16 S10G21    29.72F
6HR MIN TEMP:  76; 6HR MAX TEMP:  85;

MERCURY        SUNNY     82  28  14 SW15G25   29.73F
6HR MIN TEMP:  75; 6HR MAX TEMP:  83;

$$



USA.gov is the U.S. government's official web portal to all federal, state and local government web resources and services.